Time,TemperatureF,DewpointF,PressureIn,WindDirection,WindDirectionDegrees,WindSpeedMPH,WindSpeedGustMPH,Humidity,HourlyPrecipIn,Conditions,Clouds,dailyrainin,SolarRadiationWatts/m^2,SoftwareType,DateUTC
2013-11-24 00:00:00,59.7,57.7,30.07,West,261,0.0,6.0,93,0.00,,,0.08,0.0,meteohub,2013-11-24 05:00:00,
2013-11-24 00:01:00,59.5,57.6,30.07,West,275,3.0,6.0,93,0.00,,,0.08,0.0,meteohub,2013-11-24 05:01:00,
2013-11-24 00:02:00,59.5,57.6,30.07,West,275,0.0,6.0,93,0.00,,,0.08,0.0,meteohub,2013-11-24 05:02:00,
2013-11-24 00:07:00,59.5,57.6,30.07,WNW,288,1.0,6.0,93,0.00,,,0.00,0.0,meteohub,2013-11-24 05:07:00,
2013-11-24 00:12:00,59.4,57.4,30.07,WNW,292,1.0,5.0,93,0.00,,,0.00,0.0,meteohub,2013-11-24 05:12:00,
2013-11-24 00:17:00,59.2,57.2,30.07,WNW,290,2.0,4.0,93,0.00,,,0.00,0.0,meteohub,2013-11-24 05:17:00,
2013-11-24 00:22:00,59.2,57.2,30.07,WNW,291,0.0,7.0,93,0.00,,,0.00,0.0,meteohub,2013-11-24 05:22:00,
2013-11-24 00:27:00,59.0,57.0,30.07,WNW,292,0.0,7.0,93,0.00,,,0.00,0.0,meteohub,2013-11-24 05:27:00,
2013-11-24 00:32:00,59.0,57.0,30.07,WNW,295,3.0,7.0,93,0.00,,,0.00,0.0,meteohub,2013-11-24 05:32:00,
2013-11-24 00:37:00,59.0,57.0,30.07,WNW,288,0.0,6.0,93,0.00,,,0.00,0.0,meteohub,2013-11-24 05:37:00,
2013-11-24 00:42:00,59.0,56.7,30.07,WNW,295,4.0,6.0,92,0.00,,,0.00,0.0,meteohub,2013-11-24 05:42:00,
2013-11-24 00:47:00,59.0,56.7,30.07,West,277,6.0,6.0,92,0.00,,,0.00,0.0,meteohub,2013-11-24 05:47:00,
2013-11-24 00:52:00,58.8,56.5,30.07,West,277,3.0,7.0,92,0.00,,,0.00,0.0,meteohub,2013-11-24 05:52:00,
2013-11-24 00:57:00,58.6,56.3,30.07,NNW,331,3.0,7.0,92,0.00,,,0.00,0.0,meteohub,2013-11-24 05:57:00,
2013-11-24 01:02:00,58.6,56.3,30.07,WNW,284,3.0,7.0,92,0.00,,,0.00,0.0,meteohub,2013-11-24 06:02:00,
2013-11-24 01:07:00,58.6,56.3,30.07,NW,304,1.0,7.0,92,0.00,,,0.00,0.0,meteohub,2013-11-24 06:07:00,
2013-11-24 01:12:00,58.5,56.1,30.07,West,272,3.0,8.0,92,0.00,,,0.00,0.0,meteohub,2013-11-24 06:12:00,
2013-11-24 01:17:00,58.5,56.1,30.07,WNW,292,2.0,8.0,92,0.00,,,0.00,0.0,meteohub,2013-11-24 06:17:00,
2013-11-24 01:22:00,58.5,55.8,30.07,WNW,287,0.0,8.0,91,0.00,,,0.00,0.0,meteohub,2013-11-24 06:22:00,
2013-11-24 01:27:00,58.5,55.8,30.07,NW,325,2.0,8.0,91,0.00,,,0.00,0.0,meteohub,2013-11-24 06:27:00,
2013-11-24 01:32:00,58.5,55.8,30.07,NNW,327,2.0,7.0,91,0.00,,,0.00,0.0,meteohub,2013-11-24 06:32:00,
2013-11-24 01:37:00,58.5,55.8,30.07,WNW,283,2.0,6.0,91,0.00,,,0.00,0.0,meteohub,2013-11-24 06:37:00,
2013-11-24 01:42:00,58.5,55.8,30.07,WNW,283,0.0,6.0,91,0.00,,,0.00,0.0,meteohub,2013-11-24 06:42:00,
2013-11-24 01:47:00,58.5,55.8,30.08,WNW,294,0.0,5.0,91,0.00,,,0.00,0.0,meteohub,2013-11-24 06:47:00,
2013-11-24 01:52:00,58.6,55.9,30.08,West,275,3.0,5.0,91,0.00,,,0.00,0.0,meteohub,2013-11-24 06:52:00,
2013-11-24 01:57:00,58.6,55.9,30.08,NW,322,5.0,5.0,91,0.00,,,0.00,0.0,meteohub,2013-11-24 06:57:00,
2013-11-24 02:02:00,58.8,56.1,30.08,NE,34,2.0,5.0,91,0.00,,,0.00,0.0,meteohub,2013-11-24 07:02:00,
2013-11-24 02:07:00,58.8,56.1,30.08,WNW,291,1.0,6.0,91,0.00,,,0.00,0.0,meteohub,2013-11-24 07:07:00,
2013-11-24 02:12:00,59.0,56.3,30.08,WNW,298,0.0,6.0,91,0.00,,,0.00,0.0,meteohub,2013-11-24 07:12:00,
2013-11-24 02:17:00,59.0,56.3,30.09,WNW,291,1.0,6.0,91,0.00,,,0.00,0.0,meteohub,2013-11-24 07:17:00,
2013-11-24 02:22:00,59.0,56.3,30.09,WNW,294,0.0,6.0,91,0.00,,,0.00,0.0,meteohub,2013-11-24 07:22:00,
2013-11-24 02:27:00,59.0,56.3,30.09,WNW,283,4.0,6.0,91,0.00,,,0.00,0.0,meteohub,2013-11-24 07:27:00,
2013-11-24 02:32:00,59.0,56.3,30.09,WNW,283,0.0,6.0,91,0.00,,,0.00,0.0,meteohub,2013-11-24 07:32:00,
2013-11-24 02:37:00,59.0,56.3,30.09,NW,313,0.0,6.0,91,0.00,,,0.00,0.0,meteohub,2013-11-24 07:37:00,
2013-11-24 02:42:00,59.0,56.3,30.09,North,5,0.0,6.0,91,0.00,,,0.00,0.0,meteohub,2013-11-24 07:42:00,
2013-11-24 02:47:00,59.0,56.3,30.09,NNW,333,1.0,5.0,91,0.00,,,0.00,0.0,meteohub,2013-11-24 07:47:00,
2013-11-24 02:52:00,59.0,56.3,30.09,NW,313,0.0,6.0,91,0.00,,,0.00,0.0,meteohub,2013-11-24 07:52:00,
2013-11-24 02:57:00,59.0,56.3,30.09,WNW,296,1.0,6.0,91,0.00,,,0.00,0.0,meteohub,2013-11-24 07:57:00,
2013-11-24 03:02:00,59.0,56.3,30.09,NE,41,0.0,4.0,91,0.00,,,0.00,0.0,meteohub,2013-11-24 08:02:00,
2013-11-24 03:07:00,59.0,56.1,30.09,NW,313,0.0,4.0,90,0.00,,,0.00,0.0,meteohub,2013-11-24 08:07:00,
2013-11-24 03:12:00,59.0,56.1,30.09,NW,313,0.0,4.0,90,0.00,,,0.00,0.0,meteohub,2013-11-24 08:12:00,
2013-11-24 03:17:00,59.0,56.1,30.09,WNW,284,1.0,4.0,90,0.00,,,0.00,0.0,meteohub,2013-11-24 08:17:00,
2013-11-24 03:22:00,59.0,56.1,30.09,WNW,284,0.0,6.0,90,0.00,,,0.00,0.0,meteohub,2013-11-24 08:22:00,
2013-11-24 03:27:00,59.0,56.1,30.09,NE,41,0.0,6.0,90,0.00,,,0.00,0.0,meteohub,2013-11-24 08:27:00,
2013-11-24 03:32:00,59.0,56.1,30.09,NE,42,0.0,6.0,90,0.00,,,0.00,0.0,meteohub,2013-11-24 08:32:00,
2013-11-24 03:37:00,59.0,56.1,30.09,ENE,57,0.0,6.0,90,0.00,,,0.00,0.0,meteohub,2013-11-24 08:37:00,
2013-11-24 03:42:00,59.0,56.1,30.09,NNE,13,0.0,6.0,90,0.00,,,0.00,0.0,meteohub,2013-11-24 08:42:00,
2013-11-24 03:47:00,59.0,56.1,30.09,NW,306,1.0,5.0,90,0.00,,,0.00,0.0,meteohub,2013-11-24 08:47:00,
2013-11-24 03:52:00,59.0,56.1,30.10,NW,321,0.0,4.0,90,0.00,,,0.00,0.0,meteohub,2013-11-24 08:52:00,
2013-11-24 03:57:00,59.0,56.1,30.10,NNE,14,0.0,6.0,90,0.00,,,0.00,0.0,meteohub,2013-11-24 08:57:00,
2013-11-24 04:02:00,59.0,55.8,30.10,NW,305,0.0,6.0,89,0.00,,,0.00,0.0,meteohub,2013-11-24 09:02:00,
2013-11-24 04:07:00,59.0,55.8,30.10,NW,325,0.0,6.0,89,0.00,,,0.00,0.0,meteohub,2013-11-24 09:07:00,
2013-11-24 04:12:00,59.0,55.8,30.10,WNW,294,0.0,6.0,89,0.00,,,0.00,0.0,meteohub,2013-11-24 09:12:00,
2013-11-24 04:17:00,59.0,55.8,30.10,WNW,296,1.0,6.0,89,0.00,,,0.00,0.0,meteohub,2013-11-24 09:17:00,
2013-11-24 04:22:00,59.0,55.8,30.10,West,275,5.0,5.0,89,0.00,,,0.00,0.0,meteohub,2013-11-24 09:22:00,
2013-11-24 04:27:00,59.0,55.8,30.10,NNE,22,5.0,5.0,89,0.00,,,0.00,0.0,meteohub,2013-11-24 09:27:00,
2013-11-24 04:32:00,59.0,55.4,30.10,NE,46,0.0,7.0,88,0.00,,,0.00,0.0,meteohub,2013-11-24 09:32:00,
2013-11-24 04:37:00,59.0,55.4,30.11,NE,46,1.0,7.0,88,0.00,,,0.00,0.0,meteohub,2013-11-24 09:37:00,
2013-11-24 04:42:00,59.0,55.4,30.11,NNE,19,0.0,7.0,88,0.00,,,0.00,0.0,meteohub,2013-11-24 09:42:00,
2013-11-24 04:47:00,58.8,55.6,30.11,NNE,19,0.0,4.0,89,0.00,,,0.00,0.0,meteohub,2013-11-24 09:47:00,
2013-11-24 04:52:00,58.8,55.6,30.12,NNW,338,0.0,4.0,89,0.00,,,0.00,0.0,meteohub,2013-11-24 09:52:00,
2013-11-24 04:57:00,58.6,55.4,30.12,NE,49,2.0,3.0,89,0.00,,,0.00,0.0,meteohub,2013-11-24 09:57:00,
2013-11-24 05:02:00,58.6,55.0,30.12,NNE,15,2.0,6.0,88,0.00,,,0.00,0.0,meteohub,2013-11-24 10:02:00,
2013-11-24 05:07:00,58.5,54.7,30.13,NE,49,5.0,8.0,87,0.00,,,0.00,0.0,meteohub,2013-11-24 10:07:00,
2013-11-24 05:12:00,58.3,54.1,30.13,NE,34,0.0,8.0,86,0.00,,,0.00,0.0,meteohub,2013-11-24 10:12:00,
2013-11-24 05:17:00,57.7,52.0,30.14,NE,44,9.0,13.0,81,0.00,,,0.00,0.0,meteohub,2013-11-24 10:17:00,
2013-11-24 05:22:00,57.0,49.1,30.14,NE,41,2.0,13.0,75,0.00,,,0.00,0.0,meteohub,2013-11-24 10:22:00,
2013-11-24 05:27:00,56.7,48.7,30.14,NE,38,3.0,13.0,75,0.01,,,0.01,0.0,meteohub,2013-11-24 10:27:00,
2013-11-24 05:32:00,56.3,47.8,30.14,NE,34,4.0,13.0,73,0.01,,,0.01,0.0,meteohub,2013-11-24 10:32:00,
2013-11-24 05:38:00,55.9,46.8,30.14,NE,48,8.0,10.0,71,0.01,,,0.01,0.0,meteohub,2013-11-24 10:38:00,
2013-11-24 05:43:00,55.8,45.3,30.15,NE,39,5.0,12.0,68,0.01,,,0.01,0.0,meteohub,2013-11-24 10:43:00,
2013-11-24 05:48:00,55.6,44.4,30.15,NE,46,5.0,13.0,66,0.01,,,0.01,0.0,meteohub,2013-11-24 10:48:00,
2013-11-24 05:53:00,55.2,44.1,30.15,NNE,25,6.0,13.0,66,0.01,,,0.01,0.0,meteohub,2013-11-24 10:53:00,
2013-11-24 05:58:00,54.9,43.7,30.16,NW,307,0.0,15.0,66,0.01,,,0.01,0.0,meteohub,2013-11-24 10:58:00,
2013-11-24 06:03:00,54.5,42.6,30.16,North,0,0.0,15.0,64,0.01,,,0.01,0.0,meteohub,2013-11-24 11:03:00,
2013-11-24 06:08:00,54.1,41.9,30.17,NW,318,0.0,22.0,63,0.01,,,0.01,0.0,meteohub,2013-11-24 11:08:00,
2013-11-24 06:13:00,54.0,42.1,30.17,North,5,3.0,22.0,64,0.01,,,0.01,0.0,meteohub,2013-11-24 11:13:00,
2013-11-24 06:18:00,53.6,42.1,30.18,NE,39,1.0,11.0,65,0.01,,,0.01,0.0,meteohub,2013-11-24 11:18:00,
2013-11-24 06:23:00,53.4,42.8,30.18,NNE,21,4.0,9.0,67,0.00,,,0.01,0.0,meteohub,2013-11-24 11:23:00,
2013-11-24 06:28:00,53.1,42.1,30.18,NNW,340,2.0,10.0,66,0.00,,,0.01,0.0,meteohub,2013-11-24 11:28:00,
2013-11-24 06:33:00,52.9,41.4,30.18,WNW,302,1.0,13.0,65,0.00,,,0.01,0.0,meteohub,2013-11-24 11:33:00,
2013-11-24 06:38:00,52.5,41.5,30.19,NE,38,1.0,13.0,66,0.00,,,0.01,0.0,meteohub,2013-11-24 11:38:00,
2013-11-24 06:43:00,52.3,41.7,30.19,North,0,0.0,13.0,67,0.00,,,0.01,0.0,meteohub,2013-11-24 11:43:00,
2013-11-24 06:48:00,52.0,41.4,30.19,NNE,32,1.0,14.0,67,0.00,,,0.01,0.0,meteohub,2013-11-24 11:48:00,
2013-11-24 06:53:00,51.6,40.6,30.19,WSW,245,0.0,14.0,66,0.00,,,0.01,0.0,meteohub,2013-11-24 11:53:00,
2013-11-24 06:58:00,51.3,40.3,30.19,North,9,1.0,14.0,66,0.00,,,0.01,0.0,meteohub,2013-11-24 11:58:00,
2013-11-24 07:03:00,51.1,40.5,30.20,North,5,5.0,11.0,67,0.00,,,0.01,0.0,meteohub,2013-11-24 12:03:00,
2013-11-24 07:08:00,50.9,40.3,30.20,NE,47,0.0,11.0,67,0.00,,,0.01,5.0,meteohub,2013-11-24 12:08:00,
2013-11-24 07:13:00,50.7,39.7,30.21,WNW,295,0.0,9.0,66,0.00,,,0.01,7.0,meteohub,2013-11-24 12:13:00,
2013-11-24 07:18:00,50.5,39.2,30.22,NNE,32,6.0,9.0,65,0.00,,,0.01,9.0,meteohub,2013-11-24 12:18:00,
2013-11-24 07:23:00,50.5,39.2,30.22,WNW,296,0.0,12.0,65,0.00,,,0.01,18.0,meteohub,2013-11-24 12:23:00,
2013-11-24 07:28:00,50.4,39.0,30.22,NE,45,5.0,12.0,65,0.00,,,0.01,28.0,meteohub,2013-11-24 12:28:00,
2013-11-24 07:33:00,50.4,39.0,30.22,NNE,32,1.0,12.0,65,0.00,,,0.01,40.0,meteohub,2013-11-24 12:33:00,
2013-11-24 07:38:00,50.2,38.8,30.23,NE,40,2.0,8.0,65,0.00,,,0.01,54.0,meteohub,2013-11-24 12:38:00,
2013-11-24 07:43:00,50.2,38.8,30.23,North,355,1.0,8.0,65,0.00,,,0.01,47.0,meteohub,2013-11-24 12:43:00,
2013-11-24 07:48:00,50.2,38.1,30.23,NW,309,1.0,11.0,63,0.00,,,0.01,53.0,meteohub,2013-11-24 12:48:00,
2013-11-24 07:53:00,50.2,38.5,30.23,East,84,1.0,11.0,64,0.00,,,0.01,54.0,meteohub,2013-11-24 12:53:00,
2013-11-24 07:58:00,50.2,37.6,30.24,NNW,327,0.0,11.0,62,0.00,,,0.01,53.0,meteohub,2013-11-24 12:58:00,
2013-11-24 08:03:00,50.0,38.3,30.24,NNE,23,0.0,11.0,64,0.00,,,0.01,63.0,meteohub,2013-11-24 13:03:00,
2013-11-24 08:08:00,50.0,38.3,30.24,NE,47,3.0,11.0,64,0.00,,,0.01,67.0,meteohub,2013-11-24 13:08:00,
2013-11-24 08:13:00,49.8,37.8,30.24,NE,42,6.0,11.0,63,0.00,,,0.01,67.0,meteohub,2013-11-24 13:13:00,
2013-11-24 08:18:00,49.6,37.2,30.25,NE,42,6.0,13.0,62,0.00,,,0.01,84.0,meteohub,2013-11-24 13:18:00,
2013-11-24 08:23:00,49.6,37.9,30.25,NE,38,5.0,13.0,64,0.00,,,0.01,118.0,meteohub,2013-11-24 13:23:00,
2013-11-24 08:28:00,49.5,37.4,30.26,NNW,336,4.0,13.0,63,0.00,,,0.01,144.0,meteohub,2013-11-24 13:28:00,
2013-11-24 08:33:00,49.6,37.2,30.26,NNE,30,1.0,12.0,62,0.00,,,0.01,308.0,meteohub,2013-11-24 13:33:00,
2013-11-24 08:38:00,50.0,37.9,30.27,West,279,2.0,9.0,63,0.00,,,0.01,348.0,meteohub,2013-11-24 13:38:00,
2013-11-24 08:43:00,50.2,36.9,30.27,West,271,1.0,13.0,60,0.00,,,0.01,366.0,meteohub,2013-11-24 13:43:00,
2013-11-24 08:48:00,50.0,37.0,30.27,NE,41,2.0,13.0,61,0.00,,,0.01,360.0,meteohub,2013-11-24 13:48:00,
2013-11-24 08:53:00,49.8,36.9,30.28,NE,51,11.0,11.0,61,0.00,,,0.01,248.0,meteohub,2013-11-24 13:53:00,
2013-11-24 08:58:00,50.0,37.0,30.28,North,11,3.0,15.0,61,0.00,,,0.01,404.0,meteohub,2013-11-24 13:58:00,
2013-11-24 09:03:00,50.4,37.0,30.29,NE,42,10.0,15.0,60,0.00,,,0.01,403.0,meteohub,2013-11-24 14:03:00,
2013-11-24 09:08:00,49.8,36.5,30.29,NE,53,12.0,15.0,60,0.00,,,0.01,415.0,meteohub,2013-11-24 14:08:00,
2013-11-24 09:13:00,49.8,36.1,30.29,NE,37,10.0,17.0,59,0.00,,,0.01,221.0,meteohub,2013-11-24 14:13:00,
2013-11-24 09:18:00,49.6,36.0,30.28,North,5,1.0,17.0,59,0.00,,,0.01,163.0,meteohub,2013-11-24 14:18:00,
2013-11-24 09:23:00,49.8,36.1,30.29,NE,38,9.0,17.0,59,0.00,,,0.01,373.0,meteohub,2013-11-24 14:23:00,
2013-11-24 09:28:00,49.6,36.7,30.29,NNE,31,6.0,15.0,61,0.00,,,0.01,373.0,meteohub,2013-11-24 14:28:00,
2013-11-24 09:33:00,49.8,36.5,30.29,NE,40,7.0,16.0,60,0.00,,,0.01,475.0,meteohub,2013-11-24 14:33:00,
2013-11-24 09:38:00,49.8,36.5,30.30,NW,304,3.0,16.0,60,0.00,,,0.01,464.0,meteohub,2013-11-24 14:38:00,
2013-11-24 09:43:00,50.2,36.3,30.30,North,0,4.0,16.0,59,0.00,,,0.01,499.0,meteohub,2013-11-24 14:43:00,
2013-11-24 09:48:00,50.4,35.2,30.30,NNW,332,6.0,12.0,56,0.00,,,0.01,503.0,meteohub,2013-11-24 14:48:00,
2013-11-24 09:53:00,50.2,35.6,30.30,North,355,9.0,10.0,57,0.00,,,0.01,257.0,meteohub,2013-11-24 14:53:00,
2013-11-24 09:58:00,49.8,35.2,30.30,NNE,15,5.0,14.0,57,0.00,,,0.01,540.0,meteohub,2013-11-24 14:58:00,
2013-11-24 10:04:00,50.2,34.7,30.30,ENE,61,10.0,15.0,55,0.00,,,0.01,454.0,meteohub,2013-11-24 15:04:00,
2013-11-24 10:09:00,49.8,34.7,30.31,NW,304,2.0,15.0,56,0.00,,,0.01,459.0,meteohub,2013-11-24 15:09:00,
2013-11-24 10:14:00,49.8,34.7,30.31,ENE,63,4.0,16.0,56,0.00,,,0.01,587.0,meteohub,2013-11-24 15:14:00,
2013-11-24 10:19:00,49.8,33.8,30.31,NW,325,0.0,16.0,54,0.00,,,0.01,445.0,meteohub,2013-11-24 15:19:00,
2013-11-24 10:24:00,49.6,33.6,30.32,NE,53,13.0,17.0,54,0.00,,,0.01,642.0,meteohub,2013-11-24 15:24:00,
2013-11-24 10:29:00,50.0,34.0,30.31,WNW,288,0.0,17.0,54,0.00,,,0.01,512.0,meteohub,2013-11-24 15:29:00,
2013-11-24 10:34:00,50.2,33.6,30.32,NW,319,2.0,17.0,53,0.00,,,0.01,334.0,meteohub,2013-11-24 15:34:00,
2013-11-24 10:39:00,49.8,33.8,30.32,North,350,0.0,14.0,54,0.00,,,0.01,332.0,meteohub,2013-11-24 15:39:00,
2013-11-24 10:44:00,49.8,34.3,30.32,NNE,22,4.0,11.0,55,0.00,,,0.01,339.0,meteohub,2013-11-24 15:44:00,
2013-11-24 10:49:00,50.0,33.1,30.32,North,10,1.0,11.0,52,0.00,,,0.01,387.0,meteohub,2013-11-24 15:49:00,
2013-11-24 10:54:00,50.2,33.6,30.32,North,0,12.0,16.0,53,0.00,,,0.01,659.0,meteohub,2013-11-24 15:54:00,
2013-11-24 10:59:00,50.4,32.4,30.33,NE,56,7.0,16.0,50,0.00,,,0.01,657.0,meteohub,2013-11-24 15:59:00,
2013-11-24 11:04:00,50.4,32.9,30.32,East,83,13.0,16.0,51,0.00,,,0.01,587.0,meteohub,2013-11-24 16:04:00,
2013-11-24 11:09:00,50.5,33.6,30.32,ENE,67,1.0,17.0,52,0.00,,,0.01,619.0,meteohub,2013-11-24 16:09:00,
2013-11-24 11:14:00,51.1,33.6,30.33,WNW,296,0.0,17.0,51,0.00,,,0.01,573.0,meteohub,2013-11-24 16:14:00,
2013-11-24 11:19:00,51.1,32.5,30.33,West,271,2.0,17.0,49,0.00,,,0.01,568.0,meteohub,2013-11-24 16:19:00,
2013-11-24 11:24:00,51.1,33.1,30.33,ENE,57,5.0,10.0,50,0.00,,,0.01,608.0,meteohub,2013-11-24 16:24:00,
2013-11-24 11:29:00,51.3,33.3,30.33,West,275,4.0,13.0,50,0.00,,,0.01,654.0,meteohub,2013-11-24 16:29:00,
2013-11-24 11:34:00,51.3,32.7,30.33,NE,44,9.0,13.0,49,0.00,,,0.01,649.0,meteohub,2013-11-24 16:34:00,
2013-11-24 11:39:00,50.7,32.2,30.33,NNE,13,7.0,12.0,49,0.00,,,0.01,606.0,meteohub,2013-11-24 16:39:00,
2013-11-24 11:44:00,50.7,31.3,30.33,NE,34,13.0,16.0,47,0.00,,,0.01,613.0,meteohub,2013-11-24 16:44:00,
2013-11-24 11:49:00,50.7,31.3,30.33,West,268,5.0,16.0,47,0.00,,,0.01,628.0,meteohub,2013-11-24 16:49:00,
2013-11-24 11:54:00,50.9,32.4,30.33,North,355,7.0,16.0,49,0.00,,,0.01,656.0,meteohub,2013-11-24 16:54:00,
2013-11-24 11:59:00,51.3,32.2,30.33,ENE,57,10.0,16.0,48,0.00,,,0.01,605.0,meteohub,2013-11-24 16:59:00,
2013-11-24 12:04:00,50.7,30.7,30.33,North,0,4.0,16.0,46,0.00,,,0.01,605.0,meteohub,2013-11-24 17:04:00,
2013-11-24 12:09:00,50.5,30.6,30.33,North,0,1.0,14.0,46,0.00,,,0.01,601.0,meteohub,2013-11-24 17:09:00,
2013-11-24 12:14:00,50.7,30.7,30.32,NE,38,10.0,17.0,46,0.00,,,0.01,526.0,meteohub,2013-11-24 17:14:00,
2013-11-24 12:19:00,51.1,29.8,30.32,NE,47,8.0,17.0,44,0.00,,,0.01,677.0,meteohub,2013-11-24 17:19:00,
2013-11-24 12:24:00,50.9,29.8,30.32,West,273,0.0,17.0,44,0.00,,,0.01,673.0,meteohub,2013-11-24 17:24:00,
2013-11-24 12:29:00,51.3,30.6,30.32,NE,38,9.0,18.0,45,0.00,,,0.01,638.0,meteohub,2013-11-24 17:29:00,
2013-11-24 12:34:00,50.9,29.8,30.31,NE,36,10.0,18.0,44,0.00,,,0.01,622.0,meteohub,2013-11-24 17:34:00,
2013-11-24 12:39:00,50.9,29.8,30.31,North,350,1.0,18.0,44,0.00,,,0.01,612.0,meteohub,2013-11-24 17:39:00,
2013-11-24 12:44:00,51.4,29.7,30.31,NE,52,14.0,17.0,43,0.00,,,0.01,628.0,meteohub,2013-11-24 17:44:00,
2013-11-24 12:49:00,51.4,30.7,30.31,NNW,334,4.0,17.0,45,0.00,,,0.01,647.0,meteohub,2013-11-24 17:49:00,
2013-11-24 12:54:00,51.4,29.1,30.31,NE,36,3.0,14.0,42,0.00,,,0.01,606.0,meteohub,2013-11-24 17:54:00,
2013-11-24 12:59:00,51.4,29.7,30.30,NE,54,7.0,17.0,43,0.00,,,0.01,605.0,meteohub,2013-11-24 17:59:00,
2013-11-24 13:04:00,51.3,30.0,30.30,NE,38,1.0,17.0,44,0.00,,,0.01,633.0,meteohub,2013-11-24 18:04:00,
2013-11-24 13:09:00,51.8,32.2,30.30,WNW,290,1.0,17.0,47,0.00,,,0.01,650.0,meteohub,2013-11-24 18:09:00,
2013-11-24 13:14:00,52.2,30.4,30.30,North,9,5.0,15.0,43,0.00,,,0.01,643.0,meteohub,2013-11-24 18:14:00,
2013-11-24 13:19:00,51.6,29.8,30.29,NE,52,1.0,12.0,43,0.00,,,0.01,640.0,meteohub,2013-11-24 18:19:00,
2013-11-24 13:24:00,52.0,30.2,30.29,ENE,67,5.0,16.0,43,0.00,,,0.01,624.0,meteohub,2013-11-24 18:24:00,
2013-11-24 13:29:00,52.0,31.8,30.29,North,11,10.0,16.0,46,0.00,,,0.01,624.0,meteohub,2013-11-24 18:29:00,
2013-11-24 13:34:00,51.4,30.2,30.30,NE,36,2.0,16.0,44,0.00,,,0.01,566.0,meteohub,2013-11-24 18:34:00,
2013-11-24 13:39:00,52.0,31.3,30.29,NNE,19,6.0,13.0,45,0.00,,,0.01,578.0,meteohub,2013-11-24 18:39:00,
2013-11-24 13:44:00,52.2,31.5,30.30,NE,56,4.0,13.0,45,0.00,,,0.01,580.0,meteohub,2013-11-24 18:44:00,
2013-11-24 13:49:00,52.7,31.5,30.29,NE,51,6.0,13.0,44,0.00,,,0.01,554.0,meteohub,2013-11-24 18:49:00,
2013-11-24 13:54:00,52.3,31.6,30.29,NE,46,8.0,10.0,45,0.00,,,0.01,496.0,meteohub,2013-11-24 18:54:00,
2013-11-24 13:59:00,52.2,30.9,30.29,ENE,73,10.0,10.0,44,0.00,,,0.01,492.0,meteohub,2013-11-24 18:59:00,
2013-11-24 14:04:00,51.8,30.6,30.29,NE,40,2.0,14.0,44,0.00,,,0.01,526.0,meteohub,2013-11-24 19:04:00,
2013-11-24 14:09:00,52.0,31.3,30.29,NE,51,6.0,14.0,45,0.00,,,0.01,536.0,meteohub,2013-11-24 19:09:00,
2013-11-24 14:14:00,52.0,32.4,30.29,ENE,74,5.0,15.0,47,0.00,,,0.01,513.0,meteohub,2013-11-24 19:14:00,
2013-11-24 14:19:00,52.0,30.7,30.29,NNE,33,4.0,15.0,44,0.00,,,0.01,450.0,meteohub,2013-11-24 19:19:00,
2013-11-24 14:24:00,52.2,32.0,30.29,NE,52,4.0,15.0,46,0.00,,,0.01,455.0,meteohub,2013-11-24 19:24:00,
2013-11-24 14:29:00,52.2,30.4,30.29,East,89,2.0,15.0,43,0.00,,,0.01,457.0,meteohub,2013-11-24 19:29:00,
2013-11-24 14:34:00,52.0,29.7,30.29,NNW,346,10.0,15.0,42,0.00,,,0.01,446.0,meteohub,2013-11-24 19:34:00,
2013-11-24 14:39:00,51.8,31.1,30.29,NNE,14,12.0,15.0,45,0.00,,,0.01,267.0,meteohub,2013-11-24 19:39:00,
2013-11-24 14:44:00,51.6,30.9,30.29,NNE,26,11.0,15.0,45,0.00,,,0.01,251.0,meteohub,2013-11-24 19:44:00,
2013-11-24 14:49:00,51.4,30.7,30.29,NE,38,7.0,15.0,45,0.00,,,0.01,341.0,meteohub,2013-11-24 19:49:00,
2013-11-24 14:54:00,51.4,30.7,30.29,NE,43,3.0,14.0,45,0.00,,,0.01,102.0,meteohub,2013-11-24 19:54:00,
2013-11-24 14:59:00,51.4,31.8,30.29,NE,49,4.0,14.0,47,0.00,,,0.01,142.0,meteohub,2013-11-24 19:59:00,
2013-11-24 15:04:00,51.3,31.1,30.29,NNE,28,6.0,14.0,46,0.00,,,0.01,309.0,meteohub,2013-11-24 20:04:00,
2013-11-24 15:09:00,51.4,32.4,30.29,NE,44,9.0,14.0,48,0.00,,,0.01,258.0,meteohub,2013-11-24 20:09:00,
2013-11-24 15:14:00,51.4,32.4,30.30,NNE,24,6.0,14.0,48,0.00,,,0.01,171.0,meteohub,2013-11-24 20:14:00,
2013-11-24 15:19:00,51.4,32.4,30.29,NE,48,4.0,12.0,48,0.00,,,0.01,156.0,meteohub,2013-11-24 20:19:00,
2013-11-24 15:24:00,51.6,32.0,30.30,North,0,4.0,12.0,47,0.00,,,0.01,269.0,meteohub,2013-11-24 20:24:00,
2013-11-24 15:29:00,51.4,31.8,30.30,NNW,331,7.0,11.0,47,0.00,,,0.01,190.0,meteohub,2013-11-24 20:29:00,
2013-11-24 15:34:00,51.3,31.6,30.30,NNE,13,5.0,13.0,47,0.00,,,0.01,83.0,meteohub,2013-11-24 20:34:00,
2013-11-24 15:39:00,51.1,31.1,30.30,ENE,64,5.0,13.0,46,0.00,,,0.01,162.0,meteohub,2013-11-24 20:39:00,
2013-11-24 15:44:00,50.7,30.2,30.30,NE,34,8.0,14.0,45,0.00,,,0.01,63.0,meteohub,2013-11-24 20:44:00,
2013-11-24 15:49:00,50.5,31.1,30.31,ENE,65,11.0,14.0,47,0.00,,,0.01,35.0,meteohub,2013-11-24 20:49:00,
2013-11-24 15:54:00,50.5,30.0,30.31,NE,38,8.0,14.0,45,0.00,,,0.01,37.0,meteohub,2013-11-24 20:54:00,
2013-11-24 15:59:00,50.4,29.8,30.31,NNE,17,9.0,13.0,45,0.00,,,0.01,51.0,meteohub,2013-11-24 20:59:00,
2013-11-24 16:04:00,50.2,30.7,30.31,NE,56,1.0,13.0,47,0.00,,,0.01,72.0,meteohub,2013-11-24 21:04:00,
2013-11-24 16:09:00,50.0,30.6,30.32,NE,54,4.0,14.0,47,0.00,,,0.01,77.0,meteohub,2013-11-24 21:09:00,
2013-11-24 16:14:00,49.8,30.9,30.32,ENE,61,9.0,14.0,48,0.00,,,0.01,40.0,meteohub,2013-11-24 21:14:00,
2013-11-24 16:19:00,49.8,30.9,30.32,NE,38,3.0,14.0,48,0.00,,,0.01,74.0,meteohub,2013-11-24 21:19:00,
2013-11-24 16:24:00,49.6,30.7,30.32,NE,34,2.0,12.0,48,0.00,,,0.01,40.0,meteohub,2013-11-24 21:24:00,
2013-11-24 16:29:00,49.6,31.3,30.33,NE,55,6.0,12.0,49,0.00,,,0.01,39.0,meteohub,2013-11-24 21:29:00,
2013-11-24 16:34:00,49.5,30.6,30.33,ENE,67,8.0,12.0,48,0.00,,,0.01,21.0,meteohub,2013-11-24 21:34:00,
2013-11-24 16:39:00,49.3,30.9,30.32,ENE,76,10.0,12.0,49,0.00,,,0.01,23.0,meteohub,2013-11-24 21:39:00,
2013-11-24 16:44:00,49.1,30.2,30.33,NE,34,8.0,12.0,48,0.00,,,0.01,19.0,meteohub,2013-11-24 21:44:00,
2013-11-24 16:49:00,48.9,31.1,30.33,NNE,24,0.0,12.0,50,0.00,,,0.01,18.0,meteohub,2013-11-24 21:49:00,
2013-11-24 16:54:00,48.7,31.8,30.33,NE,37,5.0,13.0,52,0.00,,,0.01,16.0,meteohub,2013-11-24 21:54:00,
2013-11-24 16:59:00,48.6,30.7,30.33,NE,42,1.0,13.0,50,0.00,,,0.01,14.0,meteohub,2013-11-24 21:59:00,
2013-11-24 17:04:00,48.4,31.6,30.34,NNW,327,2.0,11.0,52,0.00,,,0.01,12.0,meteohub,2013-11-24 22:04:00,
2013-11-24 17:09:00,48.0,30.7,30.34,NE,53,3.0,11.0,51,0.00,,,0.01,7.0,meteohub,2013-11-24 22:09:00,
2013-11-24 17:14:00,47.7,31.3,30.34,NNE,13,0.0,11.0,53,0.00,,,0.01,5.0,meteohub,2013-11-24 22:14:00,
2013-11-24 17:19:00,47.5,31.3,30.34,NE,45,5.0,8.0,53,0.00,,,0.01,0.0,meteohub,2013-11-24 22:19:00,
2013-11-24 17:24:00,47.5,31.3,30.34,NE,45,1.0,9.0,53,0.00,,,0.01,0.0,meteohub,2013-11-24 22:24:00,
2013-11-24 17:29:00,47.1,30.9,30.34,NNE,28,5.0,9.0,53,0.00,,,0.01,0.0,meteohub,2013-11-24 22:29:00,
2013-11-24 17:34:00,46.9,31.1,30.34,ENE,75,5.0,9.0,54,0.00,,,0.01,0.0,meteohub,2013-11-24 22:34:00,
2013-11-24 17:39:00,46.9,31.1,30.34,NNE,22,0.0,9.0,54,0.00,,,0.01,0.0,meteohub,2013-11-24 22:39:00,
2013-11-24 17:44:00,46.8,31.8,30.34,NNE,31,2.0,9.0,56,0.00,,,0.01,0.0,meteohub,2013-11-24 22:44:00,
2013-11-24 17:49:00,46.8,32.4,30.34,NNE,30,2.0,9.0,57,0.00,,,0.01,0.0,meteohub,2013-11-24 22:49:00,
2013-11-24 17:54:00,46.6,32.2,30.34,NNE,32,0.0,8.0,57,0.00,,,0.01,0.0,meteohub,2013-11-24 22:54:00,
2013-11-24 17:59:00,46.2,32.2,30.35,NNE,19,0.0,8.0,58,0.00,,,0.01,0.0,meteohub,2013-11-24 22:59:00,
2013-11-24 18:04:00,45.9,32.7,30.35,NNE,18,0.0,6.0,60,0.00,,,0.01,0.0,meteohub,2013-11-24 23:04:00,
2013-11-24 18:09:00,45.7,32.5,30.35,NE,35,0.0,5.0,60,0.00,,,0.01,0.0,meteohub,2013-11-24 23:09:00,
2013-11-24 18:14:00,45.3,33.1,30.35,North,11,0.0,4.0,62,0.00,,,0.01,0.0,meteohub,2013-11-24 23:14:00,
2013-11-24 18:19:00,45.1,33.3,30.36,NW,325,0.0,4.0,63,0.00,,,0.01,0.0,meteohub,2013-11-24 23:19:00,
2013-11-24 18:24:00,45.0,32.4,30.35,NW,326,0.0,4.0,61,0.00,,,0.01,0.0,meteohub,2013-11-24 23:24:00,
2013-11-24 18:29:00,44.8,32.5,30.37,NW,326,0.0,4.0,62,0.00,,,0.01,0.0,meteohub,2013-11-24 23:29:00,
2013-11-24 18:34:00,44.4,33.8,30.37,NW,326,0.0,2.0,66,0.00,,,0.01,0.0,meteohub,2013-11-24 23:34:00,
2013-11-24 18:39:00,44.1,33.8,30.37,NW,326,0.0,2.0,67,0.00,,,0.01,0.0,meteohub,2013-11-24 23:39:00,
2013-11-24 18:44:00,43.9,34.0,30.37,NW,326,0.0,0.0,68,0.00,,,0.01,0.0,meteohub,2013-11-24 23:44:00,
2013-11-24 18:49:00,43.3,34.5,30.37,NW,326,0.0,1.0,71,0.00,,,0.01,0.0,meteohub,2013-11-24 23:49:00,
2013-11-24 18:54:00,42.8,34.0,30.37,NW,326,0.0,1.0,71,0.00,,,0.01,0.0,meteohub,2013-11-24 23:54:00,
2013-11-24 18:59:00,42.4,34.3,30.37,NW,326,0.0,1.0,73,0.00,,,0.01,0.0,meteohub,2013-11-24 23:59:00,
2013-11-24 19:05:00,42.3,33.6,30.37,NW,326,0.0,0.0,71,0.00,,,0.01,0.0,meteohub,2013-11-25 00:05:00,
2013-11-24 19:10:00,42.1,32.7,30.37,NW,326,0.0,1.0,69,0.00,,,0.01,0.0,meteohub,2013-11-25 00:10:00,
2013-11-24 19:15:00,42.3,33.8,30.37,NW,326,0.0,1.0,72,0.00,,,0.01,0.0,meteohub,2013-11-25 00:15:00,
2013-11-24 19:20:00,42.3,33.6,30.37,NNW,328,0.0,1.0,71,0.00,,,0.01,0.0,meteohub,2013-11-25 00:20:00,
2013-11-24 19:25:00,42.3,33.6,30.38,NNW,328,0.0,1.0,71,0.00,,,0.01,0.0,meteohub,2013-11-25 00:25:00,
2013-11-24 19:30:00,42.3,33.6,30.37,NE,38,2.0,2.0,71,0.00,,,0.01,0.0,meteohub,2013-11-25 00:30:00,
2013-11-24 19:35:00,42.6,33.1,30.38,NE,38,0.0,3.0,69,0.00,,,0.01,0.0,meteohub,2013-11-25 00:35:00,
2013-11-24 19:40:00,42.6,32.7,30.38,NE,40,0.0,3.0,68,0.00,,,0.01,0.0,meteohub,2013-11-25 00:40:00,
2013-11-24 19:45:00,42.4,33.6,30.38,NNE,15,1.0,3.0,71,0.00,,,0.01,0.0,meteohub,2013-11-25 00:45:00,
2013-11-24 19:50:00,42.4,33.1,30.38,NNW,348,2.0,4.0,69,0.00,,,0.01,0.0,meteohub,2013-11-25 00:50:00,
2013-11-24 19:55:00,42.4,32.7,30.38,NNE,25,0.0,4.0,68,0.00,,,0.01,0.0,meteohub,2013-11-25 00:55:00,
2013-11-24 20:00:00,42.6,32.0,30.38,NW,323,1.0,4.0,66,0.00,,,0.01,0.0,meteohub,2013-11-25 01:00:00,
2013-11-24 20:05:00,43.0,32.4,30.38,NE,36,0.0,4.0,66,0.00,,,0.01,0.0,meteohub,2013-11-25 01:05:00,
2013-11-24 20:10:00,43.2,31.8,30.38,NE,35,3.0,4.0,64,0.00,,,0.01,0.0,meteohub,2013-11-25 01:10:00,
2013-11-24 20:15:00,43.2,31.8,30.38,NE,35,0.0,5.0,64,0.00,,,0.01,0.0,meteohub,2013-11-25 01:15:00,
2013-11-24 20:20:00,43.2,32.2,30.38,NNE,29,0.0,5.0,65,0.00,,,0.01,0.0,meteohub,2013-11-25 01:20:00,
2013-11-24 20:25:00,43.2,32.5,30.39,NNE,27,0.0,5.0,66,0.00,,,0.01,0.0,meteohub,2013-11-25 01:25:00,
2013-11-24 20:30:00,42.6,31.6,30.39,NNE,27,0.0,6.0,65,0.00,,,0.01,0.0,meteohub,2013-11-25 01:30:00,
2013-11-24 20:35:00,42.4,31.8,30.39,NNE,26,0.0,6.0,66,0.00,,,0.01,0.0,meteohub,2013-11-25 01:35:00,
2013-11-24 20:40:00,42.3,32.5,30.39,NNE,27,1.0,6.0,68,0.00,,,0.01,0.0,meteohub,2013-11-25 01:40:00,
2013-11-24 20:45:00,42.3,32.2,30.39,NNE,31,0.0,1.0,67,0.00,,,0.01,0.0,meteohub,2013-11-25 01:45:00,
2013-11-24 20:50:00,42.3,32.5,30.40,NW,323,0.0,3.0,68,0.00,,,0.01,0.0,meteohub,2013-11-25 01:50:00,
2013-11-24 20:55:00,42.1,32.0,30.40,WNW,297,0.0,3.0,67,0.00,,,0.01,0.0,meteohub,2013-11-25 01:55:00,
2013-11-24 21:00:00,41.9,31.8,30.40,NE,37,0.0,3.0,67,0.00,,,0.01,0.0,meteohub,2013-11-25 02:00:00,
2013-11-24 21:05:00,41.9,32.5,30.40,NE,37,1.0,3.0,69,0.00,,,0.01,0.0,meteohub,2013-11-25 02:05:00,
2013-11-24 21:10:00,41.7,32.4,30.40,NE,46,0.0,3.0,69,0.00,,,0.01,0.0,meteohub,2013-11-25 02:10:00,
2013-11-24 21:15:00,41.7,32.4,30.40,NW,313,0.0,3.0,69,0.00,,,0.01,0.0,meteohub,2013-11-25 02:15:00,
2013-11-24 21:20:00,41.7,32.0,30.40,NE,38,0.0,4.0,68,0.00,,,0.01,0.0,meteohub,2013-11-25 02:20:00,
2013-11-24 21:25:00,41.7,32.0,30.40,North,0,0.0,5.0,68,0.00,,,0.01,0.0,meteohub,2013-11-25 02:25:00,
2013-11-24 21:30:00,41.7,32.4,30.40,NE,36,2.0,6.0,69,0.00,,,0.01,0.0,meteohub,2013-11-25 02:30:00,
2013-11-24 21:35:00,41.5,31.8,30.40,NE,36,1.0,6.0,68,0.00,,,0.01,0.0,meteohub,2013-11-25 02:35:00,
2013-11-24 21:40:00,41.4,32.0,30.39,NNW,333,0.0,-999.0,69,-99.99,,,0.01,0,weatherlink.com 1.10,2013-11-25 02:40:00,
2013-11-24 21:45:00,41.4,32.0,30.41,North,0,0.0,5.0,69,0.00,,,0.01,0.0,meteohub,2013-11-25 02:45:00,
2013-11-24 21:50:00,41.2,31.8,30.40,North,355,0.0,5.0,69,0.00,,,0.01,0.0,meteohub,2013-11-25 02:50:00,
2013-11-24 21:55:00,41.1,32.0,30.39,NE,40,0.0,-999.0,69,-99.99,,,0.01,0,weatherlink.com 1.10,2013-11-25 02:55:00,
2013-11-24 22:00:00,41.2,32.2,30.41,NW,313,0.0,5.0,70,0.00,,,0.01,0.0,meteohub,2013-11-25 03:00:00,
2013-11-24 22:05:00,41.0,32.4,30.40,NNW,340,1.0,5.0,71,0.00,,,0.01,0.0,meteohub,2013-11-25 03:05:00,
2013-11-24 22:10:00,40.9,32.0,30.39,NNW,338,1.0,-999.0,71,-99.99,,,0.01,0,weatherlink.com 1.10,2013-11-25 03:10:00,
2013-11-24 22:15:00,40.6,31.6,30.40,NE,37,0.0,4.0,70,0.00,,,0.01,0.0,meteohub,2013-11-25 03:15:00,
2013-11-24 22:20:00,40.6,32.0,30.40,NNE,33,0.0,4.0,71,0.00,,,0.01,0.0,meteohub,2013-11-25 03:20:00,
2013-11-24 22:25:00,40.6,32.0,30.40,NE,38,0.0,5.0,71,0.00,,,0.01,0.0,meteohub,2013-11-25 03:25:00,
2013-11-24 22:30:00,40.5,31.8,30.40,NNE,23,2.0,5.0,71,0.00,,,0.01,0.0,meteohub,2013-11-25 03:30:00,
2013-11-24 22:35:00,40.5,31.8,30.40,NNE,15,0.0,5.0,71,0.00,,,0.01,0.0,meteohub,2013-11-25 03:35:00,
2013-11-24 22:40:00,40.3,31.6,30.41,NW,305,0.0,4.0,71,0.00,,,0.01,0.0,meteohub,2013-11-25 03:40:00,
2013-11-24 22:45:00,40.3,32.0,30.40,NW,306,0.0,4.0,72,0.00,,,0.01,0.0,meteohub,2013-11-25 03:45:00,
2013-11-24 22:50:00,40.1,31.8,30.40,NE,56,3.0,4.0,72,0.00,,,0.01,0.0,meteohub,2013-11-25 03:50:00,
2013-11-24 22:55:00,39.9,31.6,30.40,WNW,284,0.0,3.0,72,0.00,,,0.01,0.0,meteohub,2013-11-25 03:55:00,
2013-11-24 23:00:00,39.9,32.0,30.40,NNW,345,0.0,3.0,73,0.00,,,0.01,0.0,meteohub,2013-11-25 04:00:00,
2013-11-24 23:05:00,39.9,32.0,30.40,North,355,0.0,3.0,73,0.00,,,0.01,0.0,meteohub,2013-11-25 04:05:00,
2013-11-24 23:10:00,39.9,31.6,30.40,NNE,18,3.0,3.0,72,0.00,,,0.01,0.0,meteohub,2013-11-25 04:10:00,
2013-11-24 23:16:00,39.7,31.8,30.40,North,0,0.0,3.0,73,0.00,,,0.01,0.0,meteohub,2013-11-25 04:16:00,
2013-11-24 23:21:00,39.7,31.5,30.40,NW,315,0.0,3.0,72,0.00,,,0.01,0.0,meteohub,2013-11-25 04:21:00,
2013-11-24 23:26:00,39.6,31.6,30.40,NW,318,0.0,3.0,73,0.00,,,0.01,0.0,meteohub,2013-11-25 04:26:00,
2013-11-24 23:31:00,39.6,32.0,30.40,NNW,338,0.0,3.0,74,0.00,,,0.01,0.0,meteohub,2013-11-25 04:31:00,
2013-11-24 23:36:00,39.4,31.5,30.40,NNW,341,0.0,3.0,73,0.00,,,0.01,0.0,meteohub,2013-11-25 04:36:00,
2013-11-24 23:41:00,39.4,31.8,30.40,NNW,340,0.0,3.0,74,0.00,,,0.01,0.0,meteohub,2013-11-25 04:41:00,
2013-11-24 23:46:00,39.2,31.6,30.40,NW,314,0.0,2.0,74,0.00,,,0.01,0.0,meteohub,2013-11-25 04:46:00,
2013-11-24 23:51:00,39.2,32.0,30.40,NNE,23,0.0,3.0,75,0.00,,,0.01,0.0,meteohub,2013-11-25 04:51:00,
2013-11-24 23:56:00,39.0,31.5,30.40,WNW,295,0.0,3.0,74,0.00,,,0.01,0.0,meteohub,2013-11-25 04:56:00,